279  
ASUS45 KSLC 141310  
RWRUT  
 
UTAH REGIONAL WEATHER ROUNDUP  
NATIONAL WEATHER SERVICE SALT LAKE CITY UT  
600 AM MST THU DEC 14 2017  
 
UTZ001>011-023>025-141400-  
 
NORTHERN UTAH  
 
CITY SKY/WX TMP DP RH WIND PRES REMARKS
 
BRIGHAM CITY PTCLDY 20 17 88 CALM 30.38S  
HILL AFB CLEAR 24 23 96 CALM 30.35S FOG  
LOGAN PTCLDY 17 10 74 CALM 30.41S HAZE  
OGDEN CLEAR 21 19 92 S3 30.36S FOG  
SALT LAKE CITY PTCLDY 26 22 84 E3 30.38R  
TOOELE VALLEY CLEAR 18 16 93 SE8 30.39R FOG WCI 7  
WENDOVER PTCLDY 17 13 84 NE6 30.41R WCI 9  
HEBER CITY N/A 28 21 74 E7 30.31R WCI 21  
WEST JORDAN PTCLDY 22 22 100 SW5 30.38R WCI 16  
 

 
 
UTZ011>015-024>027-141400-  
 
CENTRAL/NORTHEAST UTAH  
 
CITY SKY/WX TMP DP RH WIND PRES REMARKS
 
PROVO AIRPORT CLOUDY 30 26 85 NW8 30.39R WCI 22  
MOAB/CANYONLAN CLEAR 34 23 64 NW8 30.17R WCI 27  
DELTA PTCLDY 18 18 100 E3 30.36R  
PRICE PTCLDY 31 22 69 E9 30.22R WCI 23  
RICHFIELD CLOUDY 32 21 64 N10 30.32 WCI 24  
ROOSEVELT CLOUDY 19 14 79 SW5 30.30R WCI 13  
VERNAL PTCLDY 32 19 58 VRB5 30.27R WCI 27  
 

 
 
UTZ013>016-019>022-027-141400-  
 
SOUTHERN UTAH  
 
CITY SKY/WX TMP DP RH WIND PRES REMARKS
 
BRYCE CANYON N/A N/A N/A N/A MISG 30.19R  
CEDAR CITY PTCLDY 27 18 69 N9 30.28R WCI 18  
MILFORD CLOUDY 26 17 68 N15 30.33R WCI 14  
ST GEORGE SUNNY 49 23 36 NE23G39 30.14R  
HANKSVILLE PTCLDY 36 21 55 N10 30.21R WCI 28  
KANAB CLEAR 43 18 36 N18 30.17  
BLANDING N/A 37 24 60 NW16 30.12S WCI 27  
 

 
 
REGIONAL REPORTS COLORADO/ARIZONA  
 
CITY SKY/WX TMP DP RH WIND PRES REMARKS
 
CRAIG, CO CLOUDY 24 16 71 CALM 30.25R  
GRAND JUNCTION CLEAR 35 25 66 N8 30.16R WCI 29  
RIFLE, CO CLOUDY 29 25 85 CALM 30.17R  
MONTROSE, CO CLOUDY 33 29 85 SE3 30.14R  
CORTEZ, CO CLOUDY 37 26 64 N9 30.01R WCI 30  
COLORADO CITY N/A 36 19 51 N7 30.17R WCI 30  
PAGE, AZ CLEAR 34 15 46 SW5 30.11R WCI 30  
GRAND CANYON PTCLDY 17 0 47 NE6 30.10R WCI 9  
KINGMAN, AZ PTCLDY 37 5 26 E10 30.06R WCI 30  
FLAGSTAFF, AZ CLEAR 36 9 32 NE7 30.05R WCI 30  
 

 
 
REGIONAL REPORTS NEVADA/IDAHO/WYOMING  
 
CITY SKY/WX TMP DP RH WIND PRES REMARKS
 
LAS VEGAS, NV CLEAR 51 4 14 NE9 30.13R  
ELY, NY CLEAR 26 19 74 NE15 30.33S WCI 14  
ELKO, NV PTCLDY 15 11 83 CALM 30.40R  
POCATELLO, ID FOG 21 18 88 S5 30.48R VSB 1/2 WCI 15  
BURLEY, ID CLOUDY 23 20 88 E3 30.47R FOG  
FORT BRIDGER, CLOUDY 27 27 100 W8 30.33R WCI 19  
EVANSTON, WY CLOUDY 23 21 92 N8 30.32R WCI 14  
ROCK SPRINGS, CLOUDY 19 17 92 W9 30.29R WCI 8  
 

 
 
 
CLICK HERE TO GO TO PREVIOUS BULLETINS.

The Nexlab UT Page Main Text Page